Overview Statistics Trail Chart Weather Telemetry Raw packets
 

This is the latest recevied weather packets stored in our database for station/object N5ZP. If no packets are shown the sender has not sent any weather packets the latest 10 day(s).

<< 10 11 12 13 14 15 16 >>
Time Temp. Humidity Pressure Rain* Wind** Luminosity Snow
1788531867 26.67° C 86% 1012 hPa 0 mm - 120 W/m² -
1788531567 26.67° C 85% 1012 hPa 0 mm - 118 W/m² -
1788531262 26.67° C 86% 1012.1 hPa 0 mm - 111 W/m² -
1788530958 26.67° C 86% 1012 hPa 0 mm - 104 W/m² -
1788530658 26.67° C 87% 1011.7 hPa 0 mm - 103 W/m² -
1788530357 26.11° C 86% 1011.9 hPa 0 mm - 106 W/m² -
1788530057 26.11° C 87% 1011.8 hPa 0 mm - 95 W/m² -
1788529754 26.11° C 87% 1011.7 hPa 0 mm - 78 W/m² -
1788529453 26.11° C 86% 1011.7 hPa 0 mm - 71 W/m² -
1788529165 26.11° C 87% 1012 hPa 0 mm - 71 W/m² -
1788528843 26.11° C 87% 1011.7 hPa 0 mm - 71 W/m² -
1788528538 26.11° C 89% 1011.5 hPa 0 mm - 76 W/m² -
1788528234 25.56° C 89% 1011.5 hPa 0 mm - 66 W/m² -
1788527933 25.56° C 89% 1011.2 hPa 0 mm - 56 W/m² -
1788527628 25.56° C 89% 1011.3 hPa 0 mm - 49 W/m² -
1788527324 25.56° C 89% 1011.4 hPa 0 mm - 41 W/m² -
1788527017 25.56° C 90% 1011.2 hPa 0 mm - 32 W/m² -
1788526713 25.56° C 90% 1011.1 hPa 0 mm - 29 W/m² -
1788526409 25.56° C 90% 1011.3 hPa 0 mm - 31 W/m² -
1788526108 25.56° C 91% 1011.2 hPa 0 mm - 28 W/m² -
1788525804 25° C 91% 1011.2 hPa 0 mm - 24 W/m² -
1788525504 25° C 91% 1011.1 hPa 0 mm - 21 W/m² -
1788525199 25° C 91% 1011.3 hPa 0 mm - 15 W/m² -
1788524895 25° C 91% 1011.2 hPa 0 mm - 14 W/m² -
1788524594 25° C 91% 1010.9 hPa 0 mm - 13 W/m² -

* Rain latest hour (hover to see other rain measurements)
** Current wind speed in m/s (hover to see current wind gust speed)